Weather History for Tucumcari, NM

Change the Weather History Date:

Saturday, July 27, 2013

  Actual Average Record
Temperature  
Mean Temperature 78 °F -  
Max Temperature 91 °F 92 °F 104 °F (2011)
Min Temperature 66 °F 64 °F 53 °F (1965)
Cooling Degree Days 14    
Growing Degree Days 28 (Base 50)    
Moisture  
Dew Point 55 °F    
Average Humidity 46    
Maximum Humidity 81    
Minimum Humidity 25    
Precipitation  
Precipitation 0.00 in - - ()
Sea Level Pressure  
Sea Level Pressure 29.91 in    
Wind  
Wind Speed 10 mph (SSW)    
Max Wind Speed 25 mph    
Max Gust Speed 32 mph    
Visibility 10 miles    
Events      
Averages and records for this station are not official NWS values.
T = Trace of Precipitation, MM = Missing Value Source: NWS Daily Summary

Daily Weather History Graph

Daily Weather History Graph

Search for Another Location

Airport:

Trip Planner

Search our weather history database for the weather conditions in past years. The results will help you decide how hot, cold, wet, or windy it might be!

Date:

Astronomy

Jul. 27, 2013 Rise Set
Actual Time 5:59 AM MDT 8:01 PM MDT
Civil Twilight 5:31 AM MDT 8:29 PM MDT
Nautical Twilight 4:57 AM MDT 9:03 PM MDT
Astronomical Twilight 4:20 AM MDT 9:40 PM MDT
Moon 11:06 PM MDT 11:27 AM MDT
Length of Visible Light 14h 57m
Length of Day
14h 01m
Waning Gibbous, 70% of the Moon is Illuminated
Jul 27
Waning Gibbous
Jul 29
Last Quarter
Aug 6
New
Aug 14
First Quarter
Aug 20
Full

Hourly Weather History & Observations

Time (MDT) Temp. Heat Index Dew Point Humidity Pressure Visibility Wind Dir Wind Speed Gust Speed Precip Events Conditions
12:53 AM 73.0 °F - 57.0 °F 57% 30.05 in 10.0 mi SE 3.5 mph - N/A   Clear
1:53 AM 70.0 °F - 59.0 °F 68% 30.05 in 10.0 mi Calm Calm - N/A   Clear
2:53 AM 69.1 °F - 60.1 °F 73% 30.03 in 10.0 mi WSW 4.6 mph - N/A   Clear
3:53 AM 66.9 °F - 59.0 °F 76% 30.02 in 10.0 mi SW 3.5 mph - N/A   Clear
4:53 AM 66.0 °F - 60.1 °F 81% 30.03 in 10.0 mi West 3.5 mph - N/A   Clear
5:53 AM 68.0 °F - 59.0 °F 73% 30.04 in 10.0 mi SW 6.9 mph - N/A   Clear
6:53 AM 66.9 °F - 60.1 °F 79% 30.04 in 10.0 mi South 6.9 mph - N/A   Clear
7:53 AM 73.9 °F - 60.1 °F 62% 30.02 in 10.0 mi SSW 9.2 mph - N/A   Clear
8:53 AM 78.1 °F - 59.0 °F 52% 30.00 in 10.0 mi SSW 12.7 mph - N/A   Clear
9:53 AM 82.0 °F 81.7 °F 57.0 °F 42% 29.98 in 10.0 mi SW 16.1 mph - N/A   Clear
10:53 AM 84.0 °F 83.5 °F 57.9 °F 41% 29.96 in 10.0 mi SW 18.4 mph - N/A   Clear
11:53 AM 87.1 °F 86.1 °F 57.9 °F 37% 29.94 in 10.0 mi SW 18.4 mph 24.2 mph N/A   Clear
12:53 PM 89.1 °F 87.7 °F 57.0 °F 34% 29.90 in 10.0 mi SW 17.3 mph 27.6 mph N/A   Clear
1:53 PM 90.0 °F 88.1 °F 55.9 °F 31% 29.88 in 10.0 mi SW 21.9 mph 27.6 mph N/A   Clear
2:53 PM 91.0 °F 88.7 °F 54.0 °F 28% 29.85 in 10.0 mi SSW 25.3 mph 32.2 mph N/A   Clear
3:53 PM 91.9 °F 89.5 °F 53.1 °F 27% 29.81 in 10.0 mi SSW 20.7 mph 25.3 mph N/A   Clear
4:53 PM 91.9 °F 89.5 °F 53.1 °F 27% 29.79 in 10.0 mi SSW 18.4 mph 27.6 mph N/A   Clear
5:53 PM 90.0 °F - 50.0 °F 25% 29.78 in 10.0 mi South 20.7 mph 28.8 mph N/A   Clear
6:53 PM 89.1 °F - 50.0 °F 26% 29.78 in 10.0 mi SSW 21.9 mph 27.6 mph N/A   Clear
7:53 PM 86.0 °F - 52.0 °F 31% 29.77 in 10.0 mi SSW 19.6 mph 25.3 mph N/A   Clear
8:53 PM 82.9 °F - 50.0 °F 32% 29.78 in 10.0 mi South 18.4 mph 25.3 mph N/A   Clear
9:53 PM 80.1 °F - 48.9 °F 34% 29.80 in 10.0 mi South 20.7 mph - N/A   Clear
10:53 PM 78.1 °F - 48.9 °F 36% 29.81 in 10.0 mi South 13.8 mph - N/A   Clear
11:53 PM 78.1 °F - 50.0 °F 37% 29.81 in 10.0 mi SSW 15.0 mph - N/A   Clear